KBWI

Baltimore Washington International Thurgood Marshall Airport

Airport
ICAO code
KBWI
IATA Code
BWI
Summary
ICAO Region
NAM
ICAO Territory
Location

Anne Arundel County, Maryland

Serving
Baltimore and Washington DC
Elevation
146 ft
Coordinates
39° 10' 24" N , 76° 40' 5" W
KCC
Airport WX
Cumulonimbus
Metar
KBWI 192054Z 14008KT 120V190 10SM FEW036 FEW200 SCT250 31/14 A3031 RMK AO2 SLP263 T03110139 57003 $

Description

International airport located 9 nm south of downtown Baltimore, USA, serving Baltimore and Washington DC.

Airport map

Aerial View

SKYbrary Partners:

Safety knowledge contributed by: